TimeCDT,TemperatureF,Dew PointF,Humidity,Sea Level PressureIn,VisibilityMPH,Wind Direction,Wind SpeedMPH,Gust SpeedMPH,PrecipitationIn,Events,Conditions,WindDirDegrees,DateUTC
12:15 AM,69.8,53.6,56,29.78,10.0,SSW,11.5,-,N/A,,Clear,200,2013-08-31 05:15:00
12:35 AM,69.8,53.6,56,29.77,10.0,South,11.5,-,N/A,,Clear,190,2013-08-31 05:35:00
12:55 AM,68.0,51.8,56,29.79,10.0,South,5.8,-,N/A,,Clear,190,2013-08-31 05:55:00
1:15 AM,68.0,51.8,56,29.79,10.0,South,4.6,-,N/A,,Clear,180,2013-08-31 06:15:00
1:35 AM,66.2,50.0,56,29.79,10.0,SSW,4.6,-,N/A,,Clear,210,2013-08-31 06:35:00
1:55 AM,66.2,50.0,56,29.79,10.0,Calm,Calm,-,N/A,,Clear,0,2013-08-31 06:55:00
2:15 AM,66.2,50.0,56,29.79,10.0,Calm,Calm,-,N/A,,Scattered Clouds,0,2013-08-31 07:15:00
2:35 AM,68.0,50.0,52,29.78,10.0,South,4.6,-,N/A,Thunderstorm,Scattered Clouds,170,2013-08-31 07:35:00
2:55 AM,66.2,48.2,52,29.78,10.0,Calm,Calm,-,N/A,Thunderstorm,Clear,0,2013-08-31 07:55:00
3:15 AM,64.4,48.2,56,29.79,10.0,North,4.6,-,N/A,,Clear,10,2013-08-31 08:15:00
3:35 AM,64.4,48.2,56,29.80,10.0,ENE,5.8,-,N/A,,Clear,60,2013-08-31 08:35:00
3:55 AM,66.2,50.0,56,29.79,10.0,ESE,6.9,-,N/A,,Partly Cloudy,120,2013-08-31 08:55:00
4:15 AM,66.2,48.2,52,29.78,10.0,SE,10.4,-,N/A,,Scattered Clouds,130,2013-08-31 09:15:00
4:35 AM,66.2,50.0,56,29.78,10.0,SSE,11.5,-,N/A,,Mostly Cloudy,150,2013-08-31 09:35:00
4:55 AM,64.4,48.2,56,29.77,10.0,SE,8.1,-,N/A,,Partly Cloudy,130,2013-08-31 09:55:00
5:15 AM,64.4,48.2,56,29.78,10.0,SSE,6.9,-,N/A,,Clear,150,2013-08-31 10:15:00
5:35 AM,64.4,48.2,56,29.79,10.0,South,6.9,-,N/A,,Mostly Cloudy,170,2013-08-31 10:35:00
5:55 AM,64.4,48.2,56,29.78,10.0,South,6.9,-,N/A,,Mostly Cloudy,170,2013-08-31 10:55:00
6:15 AM,64.4,48.2,56,29.79,10.0,South,6.9,-,N/A,,Scattered Clouds,170,2013-08-31 11:15:00
6:35 AM,64.4,48.2,56,29.78,10.0,South,9.2,-,N/A,,Mostly Cloudy,180,2013-08-31 11:35:00
6:55 AM,66.2,50.0,56,29.79,10.0,South,10.4,-,N/A,,Mostly Cloudy,180,2013-08-31 11:55:00
7:15 AM,66.2,50.0,56,29.78,10.0,South,9.2,-,N/A,,Scattered Clouds,180,2013-08-31 12:15:00
7:35 AM,66.2,50.0,56,29.78,10.0,South,8.1,-,N/A,,Clear,190,2013-08-31 12:35:00
7:55 AM,66.2,50.0,56,29.77,10.0,South,8.1,-,N/A,,Partly Cloudy,190,2013-08-31 12:55:00
8:15 AM,66.2,50.0,56,29.77,10.0,South,8.1,-,N/A,,Partly Cloudy,190,2013-08-31 13:15:00
8:35 AM,69.8,53.6,56,29.76,10.0,SSW,10.4,-,N/A,,Partly Cloudy,200,2013-08-31 13:35:00
8:55 AM,71.6,53.6,53,29.75,10.0,South,11.5,-,N/A,,Clear,190,2013-08-31 13:55:00
9:15 AM,71.6,55.4,57,29.75,10.0,SSW,12.7,-,N/A,,Clear,210,2013-08-31 14:15:00
9:35 AM,73.4,55.4,53,29.74,10.0,SW,11.5,16.1,N/A,,Clear,220,2013-08-31 14:35:00
9:55 AM,73.4,57.2,57,29.74,10.0,SW,13.8,19.6,N/A,,Clear,220,2013-08-31 14:55:00
10:15 AM,75.2,57.2,53,29.73,10.0,WSW,12.7,18.4,N/A,,Clear,240,2013-08-31 15:15:00
10:35 AM,75.2,59.0,57,29.75,10.0,WSW,17.3,21.9,N/A,,Clear,250,2013-08-31 15:35:00
10:55 AM,75.2,59.0,57,29.75,10.0,West,15.0,21.9,N/A,,Clear,270,2013-08-31 15:55:00
11:15 AM,77.0,59.0,54,29.74,10.0,West,11.5,20.7,N/A,,Clear,280,2013-08-31 16:15:00
11:35 AM,75.2,57.2,53,29.75,10.0,West,9.2,-,N/A,,Scattered Clouds,280,2013-08-31 16:35:00
11:55 AM,77.0,59.0,54,29.74,10.0,West,10.4,-,N/A,,Scattered Clouds,280,2013-08-31 16:55:00
12:15 PM,77.0,60.8,57,29.74,10.0,WSW,10.4,-,N/A,Thunderstorm,Partly Cloudy,250,2013-08-31 17:15:00
12:35 PM,78.8,62.6,57,29.74,10.0,NW,9.2,-,N/A,,Scattered Clouds,310,2013-08-31 17:35:00
12:55 PM,80.6,62.6,54,29.72,10.0,NW,10.4,19.6,N/A,,Scattered Clouds,310,2013-08-31 17:55:00
1:15 PM,78.8,62.6,57,29.73,10.0,WNW,5.8,-,N/A,,Scattered Clouds,300,2013-08-31 18:15:00
1:35 PM,80.6,62.6,54,29.74,10.0,West,8.1,-,N/A,,Scattered Clouds,270,2013-08-31 18:35:00
1:55 PM,80.6,64.4,58,29.73,10.0,WSW,8.1,-,N/A,,Partly Cloudy,240,2013-08-31 18:55:00
2:15 PM,82.4,64.4,54,29.73,10.0,WNW,9.2,-,N/A,,Partly Cloudy,290,2013-08-31 19:15:00
2:35 PM,80.6,64.4,58,29.72,10.0,WSW,8.1,-,N/A,,Mostly Cloudy,250,2013-08-31 19:35:00
2:55 PM,77.0,59.0,54,29.72,10.0,NW,9.2,-,N/A,,Mostly Cloudy,310,2013-08-31 19:55:00
3:15 PM,80.6,62.6,54,29.72,10.0,NW,8.1,-,N/A,,Mostly Cloudy,310,2013-08-31 20:15:00
3:35 PM,78.8,62.6,57,29.71,10.0,West,10.4,-,N/A,,Scattered Clouds,260,2013-08-31 20:35:00
3:55 PM,82.4,64.4,54,29.71,10.0,NW,8.1,-,N/A,,Scattered Clouds,310,2013-08-31 20:55:00
4:15 PM,82.4,66.2,58,29.70,10.0,West,16.1,20.7,N/A,,Partly Cloudy,260,2013-08-31 21:15:00
4:35 PM,80.6,62.6,54,29.71,10.0,West,12.7,18.4,N/A,,Clear,280,2013-08-31 21:35:00
4:55 PM,78.8,62.6,57,29.71,10.0,NW,25.3,39.1,N/A,,Scattered Clouds,310,2013-08-31 21:55:00
5:15 PM,75.2,59.0,57,29.73,10.0,NNW,29.9,44.9,N/A,,Mostly Cloudy,330,2013-08-31 22:15:00
5:35 PM,71.6,55.4,57,29.76,10.0,NNW,25.3,39.1,N/A,,Mostly Cloudy,330,2013-08-31 22:35:00
5:55 PM,69.8,53.6,56,29.77,10.0,NNW,24.2,32.2,N/A,,Scattered Clouds,340,2013-08-31 22:55:00
6:15 PM,69.8,53.6,56,29.79,10.0,NNW,25.3,32.2,N/A,,Clear,340,2013-08-31 23:15:00
6:35 PM,68.0,53.6,60,29.79,10.0,NNW,18.4,31.1,N/A,,Clear,330,2013-08-31 23:35:00
6:55 PM,68.0,51.8,56,29.80,10.0,NNW,17.3,29.9,N/A,,Partly Cloudy,330,2013-08-31 23:55:00
7:15 PM,68.0,51.8,56,29.80,10.0,NW,17.3,21.9,N/A,,Clear,320,2013-09-01 00:15:00
7:35 PM,68.0,50.0,52,29.79,10.0,NW,11.5,21.9,N/A,,Clear,320,2013-09-01 00:35:00
7:55 PM,66.2,50.0,56,29.80,10.0,NW,12.7,18.4,N/A,,Clear,320,2013-09-01 00:55:00
8:15 PM,66.2,50.0,56,29.81,10.0,NNW,13.8,20.7,N/A,,Clear,330,2013-09-01 01:15:00
8:35 PM,66.2,48.2,52,29.82,10.0,NNW,16.1,20.7,N/A,,Mostly Cloudy,340,2013-09-01 01:35:00
8:55 PM,64.4,48.2,56,29.84,10.0,NNW,13.8,-,N/A,,Mostly Cloudy,340,2013-09-01 01:55:00
9:15 PM,62.6,46.4,55,29.85,10.0,NNW,15.0,-,N/A,,Partly Cloudy,340,2013-09-01 02:15:00
9:35 PM,62.6,46.4,55,29.86,10.0,NNW,16.1,-,N/A,,Scattered Clouds,340,2013-09-01 02:35:00
9:55 PM,60.8,44.6,55,29.86,10.0,North,11.5,-,N/A,,Partly Cloudy,350,2013-09-01 02:55:00
10:15 PM,60.8,44.6,55,29.88,10.0,North,10.4,-,N/A,,Scattered Clouds,350,2013-09-01 03:15:00
10:35 PM,59.0,44.6,59,29.88,10.0,NNW,8.1,-,N/A,,Scattered Clouds,330,2013-09-01 03:35:00
10:55 PM,59.0,44.6,59,29.88,10.0,NNW,15.0,-,N/A,,Mostly Cloudy,340,2013-09-01 03:55:00
11:15 PM,59.0,44.6,59,29.89,10.0,NNW,15.0,-,N/A,,Mostly Cloudy,340,2013-09-01 04:15:00
11:35 PM,59.0,44.6,59,29.89,10.0,North,13.8,20.7,N/A,,Mostly Cloudy,350,2013-09-01 04:35:00
11:55 PM,59.0,42.8,55,29.89,10.0,NNW,11.5,-,N/A,,Scattered Clouds,340,2013-09-01 04:55:00